Location: Arlington
(40.6323°N, 74.1651°W)
Time: 11:08:09
(UTC+00:00)

SL-16 R/B - Pass Details

Date: 22 November 2019
Orbit: 842 x 846 km, 71.0° (Epoch: 08 December)

Event Time Altitude Azimuth Distance (km) Brightness Sun altitude
Rises 21:53:15 0° 155° (SSE) 3,387 5.3 -4.1°
Reaches altitude 10° 21:56:36 10° 135° (SE) 2,459 4.4 -4.7°
Maximum altitude 21:59:57 16° 98° (E) 2,055 3.7 -5.3°
Drops below altitude 10° 22:03:18 10° 62° (ENE) 2,470 4.0 -5.9°
Enters shadow 22:04:43 - 52° (NE) 2,827 4.3 -6.1°
